Temp
20 20 19 19 19 18 20 22 22 24 23 24 24 23 22 22 21 19 20 21 21 20 19 19 19 19 19 19 19 19 19 19 19 19 19 19 19 18 18 18 18 18 18 18 18 18 18 18 18
19 19 19 20 19 20 21 21 22 23 23 24 23 23 23 21 20 19 19 20 21 20 19 19 19 19 19 19 19 19 19 19 19 19 19 19 18 18 18 18 18 18 18 18 19 18 17 18 19
20 20 19 18 19 21 21 22 23 23 23 23 24 24 22 19 18 20 20 21 20 20 20 19 19 19 19 19 19 19 19 19 19 19 18 18 18 18 18 18 18 18 18 18 19 18 18 18 18
20 20 21 20 23 23 23 23 24 24 24 24 24 21 20 19 19 20 20 20 21 20 20 19 19 19 19 19 19 19 19 19 19 19 18 18 18 18 18 18 18 18 18 18 19 18 18 17 18
20 21 19 22 23 24 24 25 24 24 25 25 24 21 18 18 20 21 21 20 21 20 20 19 19 19 19 19 19 19 19 19 19 19 19 18 18 18 18 18 18 18 17 18 19 17 17 17 17
21 21 20 20 23 23 24 26 25 25 25 23 22 21 19 19 20 21 21 20 20 20 20 19 18 19 19 19 19 19 19 19 19 19 19 19 18 18 18 18 18 18 17 19 19 17 17 17 17
21 19 21 21 23 23 24 26 25 24 24 24 23 19 18 19 20 20 21 20 20 20 20 19 19 19 19 19 19 18 19 19 19 19 19 19 18 18 18 18 17 17 17 18 18 17 18 18 17
22 20 21 21 22 25 26 26 26 25 23 24 24 19 18 18 19 19 20 20 19 19 20 19 19 19 19 19 18 18 18 19 19 19 19 19 18 18 18 18 18 17 18 17 18 17 17 17 17
23 22 22 24 23 25 26 26 26 25 24 24 24 24 23 21 20 19 19 19 19 19 19 20 20 19 19 18 18 18 18 19 19 19 19 19 19 18 18 18 18 17 17 18 18 17 18 18 17
22 19 23 25 24 25 26 26 26 24 24 22 22 22 23 20 20 20 19 19 19 19 20 20 20 19 19 18 18 18 19 18 19 19 19 18 19 19 18 18 18 18 18 17 17 18 18 18 18
23 23 25 27 27 27 25 25 24 24 23 23 20 19 21 20 20 20 20 20 21 21 20 20 20 20 19 18 18 18 19 19 19 19 18 18 18 19 18 18 18 17 17 17 17 17 18 18 18
24 24 27 28 28 26 25 26 24 24 25 25 24 24 22 21 21 21 21 21 21 21 21 20 20 20 20 19 19 20 20 20 19 19 19 18 18 18 18 18 18 18 18 17 17 17 17 18 18
24 26 27 29 27 26 26 25 25 24 23 24 23 22 22 22 23 23 22 22 21 21 21 21 20 20 20 20 20 20 20 20 19 19 19 19 18 18 18 17 17 18 18 18 18 17 17 17 17
28 27 28 28 27 27 26 25 26 23 23 22 21 21 22 23 23 22 22 22 22 22 21 21 20 20 20 21 20 20 20 20 20 19 19 19 19 18 18 17 17 18 18 18 18 18 17 17 17
28 26 26 26 26 26 26 25 24 25 22 21 20 20 22 22 22 23 23 23 22 22 21 21 20 20 20 21 21 20 21 20 20 20 19 19 19 18 18 18 18 18 18 18 17 17 17 16 16
25 24 24 26 25 26 27 23 25 25 23 21 20 20 21 22 22 23 23 23 22 22 22 21 21 21 20 21 21 20 20 20 20 20 19 19 19 19 18 18 18 18 18 18 18 17 17 17 17
22 24 25 26 26 25 25 23 24 24 24 23 22 21 20 21 22 22 22 22 23 23 22 22 21 21 21 20 20 20 20 20 20 19 19 19 19 19 18 18 18 18 18 18 18 18 18 17 17
24 24 24 24 26 25 24 23 25 24 23 23 23 22 21 22 23 23 23 23 22 22 22 22 21 21 21 21 20 19 20 20 20 20 19 19 19 19 19 18 18 18 18 18 18 18 18 18 17
25 24 24 25 26 26 24 24 26 23 22 22 22 23 23 23 23 23 23 23 23 22 22 22 22 21 21 21 20 20 20 20 20 19 19 19 20 20 19 19 18 18 18 18 18 18 18 18 17
25 25 24 24 26 26 24 24 24 22 23 23 23 22 23 23 23 23 23 23 23 23 23 22 22 22 21 21 21 20 20 20 20 20 20 20 20 20 20 19 19 19 18 18 18 18 18 18 18
24 24 24 25 24 24 25 24 25 24 24 24 23 23 23 24 24 24 24 23 23 23 23 23 22 22 22 21 21 20 20 20 20 20 20 20 20 20 20 19 19 19 18 18 18 18 18 18 18
24 24 25 25 24 23 25 23 23 24 23 22 24 24 24 24 25 25 25 24 24 25 24 23 23 23 22 21 20 21 21 20 20 20 20 20 20 20 20 20 19 19 18 18 19 18 18 18 18
24 26 25 25 23 23 24 22 23 22 25 24 24 24 25 24 25 27 25 25 26 25 25 25 23 23 23 22 21 21 21 21 20 20 20 19 20 20 20 20 20 19 18 18 18 18 18 18 18
26 25 21 18 18 20 23 22 21 23 24 25 25 27 24 24 25 27 27 26 25 25 25 25 24 24 23 23 22 21 21 21 20 20 20 20 20 20 20 20 20 19 19 18 18 18 18 18 18
21 19 19 21 20 21 20 22 22 25 23 23 25 27 26 25 26 26 27 27 25 25 25 25 25 24 24 23 22 22 22 21 21 20 20 20 20 20 20 20 20 20 19 19 18 17 18 18 18
21 20 18 23 20 21 19 22 25 26 25 26 26 28 28 26 26 28 29 29 27 26 26 26 25 25 25 24 24 23 22 22 21 21 20 20 20 20 20 20 20 20 19 18 18 17 17 17 17
23 21 20 17 16 18 19 21 23 25 26 26 28 28 27 28 27 29 29 28 28 27 27 27 26 25 25 25 24 23 23 22 22 21 20 19 20 20 20 19 19 19 19 18 18 17 17 16 17
23 21 21 16 21 23 19 20 21 25 26 25 26 28 29 28 27 29 30 29 29 28 28 27 26 26 26 25 24 24 24 23 22 21 21 20 19 19 19 19 20 20 19 18 17 18 18 16 16
21 21 17 16 16 19 20 19 19 23 24 24 23 28 29 29 29 30 31 31 30 28 28 28 27 26 26 26 25 25 24 23 23 22 22 21 20 20 19 19 19 20 19 19 18 18 18 17 17
24 22 18 18 21 15 16 20 23 21 20 22 24 27 29 30 30 30 31 32 31 30 29 29 28 27 26 26 26 25 24 23 23 22 21 21 20 19 19 19 19 19 19 19 18 18 18 18 17
Height
1501 1503 1504 1505 1511 1513 1521 1509 1499 1499 1501 1499 1503 1506 1506 1507 1511 1522 1510 1517 1524 1529 1533 1538 1541 1543 1546 1549 1551 1553 1554 1555 1556 1556 1557 1558 1559 1560 1562 1563 1564 1565 1566 1567 1568 1569 1570 1571 1572
1503 1504 1503 1503 1516 1527 1521 1506 1501 1497 1497 1499 1502 1505 1507 1508 1508 1508 1511 1519 1525 1530 1534 1538 1542 1544 1547 1550 1552 1554 1555 1556 1557 1558 1559 1559 1561 1561 1562 1564 1565 1566 1568 1569 1570 1572 1572 1573 1574
1505 1505 1506 1506 1516 1525 1521 1503 1499 1498 1499 1500 1503 1505 1506 1507 1507 1508 1513 1519 1527 1531 1536 1539 1543 1545 1548 1551 1553 1555 1556 1557 1559 1559 1560 1561 1562 1563 1565 1566 1567 1568 1570 1572 1572 1574 1575 1576 1577
1505 1505 1504 1511 1512 1506 1504 1501 1501 1502 1502 1502 1501 1505 1507 1507 1507 1511 1516 1521 1527 1532 1537 1540 1544 1547 1550 1552 1554 1556 1558 1559 1560 1560 1560 1562 1564 1566 1567 1568 1569 1570 1572 1573 1574 1576 1577 1579 1580
1505 1505 1511 1510 1510 1501 1496 1496 1498 1499 1499 1500 1501 1507 1510 1510 1512 1514 1519 1524 1528 1532 1537 1541 1545 1548 1551 1554 1556 1557 1559 1561 1561 1562 1563 1564 1566 1568 1570 1570 1572 1573 1574 1575 1576 1578 1580 1581 1582
1507 1507 1522 1527 1514 1500 1496 1496 1498 1497 1501 1501 1503 1508 1514 1515 1515 1517 1521 1526 1531 1534 1538 1543 1546 1549 1552 1555 1557 1559 1560 1562 1563 1564 1565 1566 1567 1569 1571 1573 1574 1575 1577 1577 1579 1580 1582 1583 1585
1508 1510 1517 1516 1509 1504 1497 1494 1498 1499 1501 1502 1503 1510 1515 1516 1519 1520 1523 1529 1534 1537 1540 1544 1547 1550 1553 1556 1558 1560 1561 1562 1564 1566 1567 1568 1569 1571 1573 1574 1576 1577 1578 1579 1581 1582 1584 1585 1587
1509 1511 1517 1515 1513 1505 1495 1494 1496 1497 1500 1501 1504 1507 1514 1514 1518 1522 1526 1530 1535 1538 1541 1544 1548 1550 1554 1556 1558 1561 1562 1563 1565 1567 1568 1569 1571 1572 1574 1576 1578 1578 1580 1581 1583 1584 1586 1587 1589
1510 1515 1516 1510 1509 1499 1494 1496 1496 1497 1499 1504 1505 1505 1508 1511 1518 1523 1528 1531 1535 1539 1542 1545 1548 1551 1555 1557 1559 1561 1563 1564 1566 1568 1569 1570 1571 1573 1575 1577 1579 1580 1581 1583 1585 1586 1587 1589 1590
1509 1519 1511 1501 1497 1497 1497 1498 1498 1500 1501 1504 1506 1506 1508 1513 1519 1524 1527 1530 1534 1538 1541 1544 1547 1551 1555 1557 1559 1561 1563 1565 1567 1568 1570 1571 1573 1574 1575 1578 1580 1582 1583 1585 1586 1587 1588 1589 1590
1508 1512 1496 1497 1494 1495 1497 1499 1498 1497 1500 1500 1501 1503 1507 1511 1518 1524 1528 1530 1532 1536 1540 1543 1547 1550 1553 1556 1558 1560 1563 1565 1566 1569 1570 1571 1573 1574 1576 1578 1580 1582 1584 1585 1586 1587 1588 1590 1591
1508 1502 1496 1490 1491 1493 1493 1495 1497 1497 1497 1496 1501 1501 1506 1512 1516 1520 1524 1529 1533 1536 1539 1542 1546 1549 1552 1555 1557 1560 1562 1565 1567 1569 1570 1571 1574 1574 1576 1578 1580 1582 1584 1585 1587 1588 1588 1590 1592
1502 1499 1495 1490 1492 1494 1494 1494 1496 1498 1497 1497 1501 1506 1507 1510 1515 1520 1525 1529 1533 1536 1538 1541 1545 1548 1551 1554 1557 1559 1562 1564 1567 1568 1570 1572 1573 1575 1577 1578 1580 1582 1584 1586 1587 1588 1589 1590 1591
1494 1497 1490 1489 1488 1489 1491 1493 1493 1497 1497 1499 1501 1505 1508 1510 1514 1519 1523 1528 1532 1535 1537 1540 1543 1547 1550 1553 1555 1558 1561 1564 1566 1569 1570 1572 1573 1574 1576 1578 1580 1582 1584 1585 1587 1588 1589 1590 1592
1495 1495 1490 1491 1492 1492 1493 1496 1493 1493 1497 1500 1501 1505 1508 1510 1513 1515 1520 1525 1528 1532 1537 1539 1541 1545 1548 1552 1554 1557 1560 1563 1566 1568 1570 1572 1573 1575 1576 1578 1580 1582 1584 1585 1586 1588 1589 1588 1589
1500 1500 1511 1494 1493 1495 1497 1506 1486 1490 1493 1500 1502 1502 1505 1506 1509 1514 1518 1523 1526 1530 1533 1538 1540 1543 1546 1550 1553 1556 1559 1562 1565 1568 1570 1571 1573 1575 1576 1578 1580 1582 1583 1585 1586 1586 1586 1586 1585
1510 1521 1512 1504 1494 1495 1498 1500 1489 1489 1489 1493 1498 1500 1502 1505 1508 1511 1516 1520 1523 1526 1531 1536 1539 1540 1544 1548 1552 1555 1558 1560 1564 1567 1569 1571 1573 1574 1576 1577 1579 1581 1582 1583 1584 1585 1584 1585 1584
1521 1519 1512 1514 1500 1496 1500 1494 1480 1486 1491 1485 1491 1496 1497 1498 1499 1507 1512 1516 1522 1524 1529 1534 1535 1539 1543 1546 1549 1553 1556 1558 1562 1565 1567 1570 1572 1574 1575 1576 1578 1579 1579 1581 1581 1582 1583 1583 1584
1509 1513 1515 1500 1497 1498 1496 1490 1476 1480 1484 1485 1486 1489 1490 1491 1498 1503 1508 1513 1517 1521 1526 1530 1532 1535 1540 1543 1546 1549 1552 1556 1559 1561 1565 1567 1569 1572 1573 1574 1576 1577 1577 1578 1580 1580 1580 1580 1582
1508 1512 1513 1500 1492 1495 1489 1486 1474 1475 1473 1474 1475 1481 1485 1492 1495 1499 1503 1508 1511 1515 1520 1526 1528 1532 1536 1540 1543 1546 1550 1553 1556 1559 1562 1563 1566 1568 1571 1572 1573 1574 1575 1576 1576 1577 1578 1579 1579
1509 1512 1511 1509 1496 1490 1490 1494 1481 1471 1471 1471 1475 1479 1481 1484 1490 1494 1497 1500 1506 1510 1514 1519 1523 1527 1531 1535 1540 1543 1547 1550 1553 1555 1558 1560 1563 1565 1567 1569 1570 1571 1572 1573 1574 1575 1575 1576 1578
1515 1500 1501 1503 1508 1522 1494 1528 1491 1478 1471 1468 1466 1468 1472 1476 1483 1487 1492 1496 1499 1502 1508 1515 1519 1523 1527 1531 1535 1538 1540 1543 1547 1550 1554 1557 1559 1562 1564 1565 1566 1567 1568 1570 1571 1572 1572 1573 1575
1504 1494 1498 1498 1508 1510 1506 1520 1497 1483 1476 1463 1455 1457 1462 1467 1475 1480 1484 1488 1492 1500 1503 1508 1514 1519 1523 1526 1530 1534 1536 1540 1544 1547 1550 1553 1555 1557 1559 1560 1562 1562 1564 1566 1567 1568 1568 1570 1572
1490 1495 1505 1513 1521 1536 1509 1515 1510 1489 1475 1462 1451 1450 1458 1463 1470 1475 1479 1485 1490 1494 1500 1504 1509 1513 1519 1522 1526 1529 1533 1536 1539 1542 1545 1549 1550 1552 1553 1555 1557 1559 1560 1561 1564 1565 1565 1566 1568
1496 1514 1541 1535 1542 1538 1513 1515 1499 1470 1464 1459 1453 1452 1456 1460 1464 1469 1474 1479 1485 1489 1494 1500 1505 1509 1513 1517 1521 1524 1528 1532 1535 1538 1540 1543 1545 1546 1547 1549 1551 1553 1555 1557 1558 1559 1560 1561 1563
1499 1507 1538 1540 1550 1534 1515 1517 1487 1462 1457 1454 1454 1453 1454 1456 1461 1463 1469 1473 1479 1485 1490 1496 1500 1505 1509 1513 1516 1520 1524 1527 1530 1533 1535 1538 1539 1542 1543 1545 1547 1548 1551 1552 1553 1552 1553 1555 1557
1495 1508 1499 1529 1538 1540 1526 1502 1474 1460 1456 1454 1453 1452 1453 1453 1457 1460 1466 1470 1475 1481 1486 1491 1495 1501 1504 1509 1513 1516 1520 1522 1524 1528 1531 1533 1535 1537 1538 1538 1541 1544 1546 1547 1546 1541 1544 1547 1550
1485 1488 1512 1525 1532 1530 1529 1517 1503 1470 1462 1456 1453 1450 1450 1453 1456 1458 1462 1467 1471 1476 1483 1488 1492 1496 1500 1504 1508 1511 1514 1517 1519 1523 1525 1527 1529 1532 1533 1536 1536 1539 1538 1538 1540 1538 1540 1540 1543
1493 1497 1508 1513 1523 1534 1536 1521 1475 1465 1456 1458 1454 1450 1448 1452 1453 1455 1457 1462 1467 1472 1478 1483 1487 1492 1495 1499 1503 1506 1508 1512 1514 1517 1520 1523 1525 1527 1528 1531 1533 1525 1531 1533 1533 1533 1533 1534 1538
1474 1484 1496 1516 1514 1528 1528 1512 1462 1463 1462 1459 1453 1445 1443 1445 1450 1452 1454 1458 1462 1468 1473 1478 1482 1486 1491 1494 1497 1500 1504 1506 1509 1511 1514 1518 1520 1521 1523 1525 1527 1528 1528 1529 1529 1529 1529 1530 1532
Wind_Speed
13 10 6 3 3 5 2 4 2 2 6 5 24 5 6 2 4 3 17 36 34 34 30 25 21 20 20 19 18 17 16 14 12 10 9 8 10 10 9 11 11 13 16 16 16 14 16 15 16
12 9 1 1 4 3 3 4 3 3 8 14 19 6 1 1 2 10 35 35 35 34 31 28 23 22 20 20 19 18 16 13 10 8 8 9 11 10 11 14 13 14 17 18 17 19 16 16 17
9 4 1 3 3 2 2 4 3 5 16 16 7 3 2 3 6 30 35 37 35 34 32 28 24 23 21 20 18 16 14 13 9 8 9 12 12 12 12 12 15 17 19 18 16 20 16 17 18
4 2 2 4 3 3 4 1 1 2 5 8 8 5 3 4 21 27 36 36 34 32 31 28 26 23 21 19 17 15 14 12 8 8 10 14 14 14 11 12 15 17 18 15 15 19 18 19 20
6 3 4 3 4 3 4 6 16 5 5 10 8 3 5 15 19 30 34 35 33 32 29 27 25 24 22 20 18 16 14 11 9 10 11 13 14 13 12 12 16 15 12 12 15 17 17 18 15
2 1 4 3 5 6 5 6 12 7 4 7 7 8 6 4 19 30 30 34 30 30 28 25 23 22 22 21 18 15 14 12 10 11 12 12 12 13 12 12 14 14 13 13 17 18 16 14 14
2 3 0 3 3 3 2 7 3 4 8 4 15 5 4 11 16 28 32 32 28 28 28 26 24 22 20 19 16 14 13 12 11 10 11 11 11 12 12 12 12 13 14 13 17 17 14 13 13
2 3 1 3 3 4 4 2 3 7 9 10 14 5 8 19 22 27 34 29 28 28 27 26 24 22 21 18 15 14 13 12 12 11 10 10 10 10 11 11 10 12 13 13 16 16 14 12 10
3 2 3 4 3 5 4 2 5 2 14 7 9 5 15 27 28 29 33 30 29 27 27 26 24 22 20 18 17 15 13 11 11 11 10 9 9 10 10 11 11 11 12 13 13 14 13 12 10
3 2 3 4 6 4 2 3 5 2 8 4 10 9 25 30 27 31 33 32 32 30 28 26 24 22 21 18 18 17 15 13 11 10 10 8 10 10 10 11 10 10 11 12 12 12 13 13 10
3 2 6 2 16 7 6 3 4 6 4 9 22 27 35 33 29 31 33 33 32 30 28 26 24 22 22 21 21 18 16 16 13 10 9 9 10 11 11 11 12 12 12 13 13 14 13 12 10
3 12 10 8 13 8 9 3 4 12 3 9 17 28 39 34 31 31 34 32 30 30 27 26 25 23 22 21 20 16 17 16 15 13 12 10 9 10 11 10 10 11 12 11 11 12 13 12 11
6 5 13 18 12 6 7 3 2 5 4 14 26 31 36 34 30 30 31 31 29 29 28 26 25 24 22 21 19 18 17 16 15 14 11 11 11 10 10 9 12 11 12 12 12 13 12 12 10
6 4 16 14 18 11 7 2 1 6 13 21 30 35 34 34 32 33 32 31 30 28 27 25 25 24 23 22 20 18 17 17 16 17 14 13 11 9 9 9 12 13 13 9 9 10 11 10 11
11 8 7 6 4 1 4 7 7 16 19 26 32 35 36 34 35 34 34 32 26 28 26 25 25 25 24 23 21 20 18 18 17 17 18 16 12 10 9 8 11 11 11 10 10 10 11 10 14
4 5 6 4 5 2 4 10 4 22 28 24 26 33 35 37 37 36 36 33 27 25 27 25 25 25 25 24 22 21 20 20 20 18 17 17 15 12 10 10 13 13 12 11 11 14 15 15 13
6 0 2 8 7 3 3 10 6 25 32 27 27 30 33 34 36 37 36 37 34 29 24 25 25 25 22 24 23 23 21 20 24 21 17 16 16 15 13 13 13 14 15 13 13 12 15 15 15
5 5 4 3 2 5 5 17 14 19 24 30 33 30 31 36 39 36 35 36 35 33 28 21 19 25 22 24 26 24 24 22 23 22 20 17 16 15 15 15 15 15 16 15 15 14 13 14 11
2 2 5 8 8 5 10 13 20 17 20 18 26 33 37 37 35 34 34 35 36 35 34 23 25 25 26 27 31 28 28 26 24 22 21 21 18 17 18 15 16 16 16 16 16 17 18 14 13
2 3 7 8 4 2 9 10 10 8 12 27 30 33 37 36 31 32 34 36 39 37 35 32 28 26 26 26 30 31 29 28 26 23 21 16 21 20 18 19 19 17 15 16 18 19 17 15 14
2 4 3 7 9 4 4 8 6 3 11 10 19 22 29 37 38 37 35 37 37 39 40 35 31 30 28 28 27 33 31 30 29 29 26 19 19 23 23 22 19 20 19 17 17 18 18 15 13
5 5 4 5 3 4 3 5 7 5 9 8 18 26 28 28 33 37 38 37 38 37 37 38 34 27 30 31 28 33 32 31 31 29 27 25 22 21 22 22 24 21 21 20 17 17 17 17 15
8 1 3 3 2 3 3 4 7 5 7 11 11 25 31 31 28 30 33 39 38 36 34 34 36 33 29 32 30 32 35 32 27 28 30 29 28 25 23 23 23 23 24 22 20 18 19 19 19
1 3 5 5 3 2 5 4 6 4 7 7 9 18 21 28 28 29 22 31 36 35 33 33 32 33 33 31 33 35 30 31 33 33 32 33 31 31 28 28 25 25 26 23 22 21 21 21 20
6 6 4 4 4 6 3 2 9 8 8 10 9 13 4 17 24 29 28 24 34 35 34 32 29 29 31 32 34 36 33 30 30 31 34 33 29 30 28 26 27 28 25 26 25 24 23 24 24
5 8 5 4 3 5 4 4 6 4 16 14 10 14 9 11 19 24 27 21 27 32 32 31 29 27 27 27 28 30 33 30 32 28 26 32 33 30 27 26 26 26 25 28 29 26 26 25 26
3 3 4 7 4 3 3 8 11 4 6 7 11 9 9 13 19 21 26 26 27 31 29 28 29 29 29 26 27 28 30 30 31 30 27 26 31 31 27 25 23 27 28 26 28 34 26 25 26
4 6 3 3 5 4 4 5 6 10 7 6 8 13 12 13 19 24 27 28 28 29 26 27 29 29 28 28 29 29 28 27 26 29 28 21 23 28 28 26 22 21 24 24 27 23 20 23 24
1 1 6 4 4 5 3 6 8 10 8 7 10 17 23 20 22 28 31 29 28 27 26 27 29 31 31 29 29 29 29 29 30 29 27 25 22 20 23 25 20 22 21 23 23 21 18 18 20
2 6 6 5 3 2 3 6 2 7 9 12 24 28 15 25 27 29 33 31 28 28 25 25 26 29 31 29 28 27 28 28 27 29 28 25 24 23 22 22 21 22 19 21 19 18 16 16 18
Wind_Direction
136 136 131 96 45 66 275 263 323 128 138 200 159 179 196 106 176 208 147 160 167 165 166 167 169 167 163 160 161 157 154 152 152 154 152 149 146 144 139 136 133 133 135 138 137 133 122 122 121
129 120 111 70 75 40 309 279 236 225 151 158 150 135 176 128 168 148 151 158 167 164 165 163 164 161 159 158 155 153 153 153 155 160 160 155 147 144 135 132 131 133 140 138 131 128 128 127 121
109 15 256 109 107 81 299 269 304 98 142 144 162 169 177 157 161 154 155 158 167 166 166 165 161 158 157 157 157 157 157 154 150 151 160 158 149 145 137 137 140 131 136 133 128 132 135 127 121
40 7 335 76 35 182 208 121 328 155 160 160 140 79 71 288 152 151 156 161 167 167 167 169 170 163 160 160 160 161 161 160 145 121 132 151 148 136 146 147 144 141 137 137 135 139 137 129 127
24 29 40 19 350 283 242 173 175 217 169 152 138 87 62 118 149 155 160 165 169 168 169 168 172 173 173 171 171 169 165 163 141 123 131 143 146 147 138 144 146 145 142 142 139 137 136 138 138
64 104 56 35 337 315 337 191 173 181 146 143 103 101 132 187 162 162 166 167 173 171 171 170 173 174 175 175 174 173 169 162 152 138 134 139 144 141 138 146 150 146 148 146 145 141 143 149 141
55 57 193 178 241 276 256 157 216 159 147 172 141 93 127 171 179 166 166 168 174 176 175 174 175 175 174 174 172 175 176 167 163 148 144 143 147 146 145 146 151 150 151 147 148 150 145 148 152
51 74 127 280 284 290 162 199 211 173 187 160 175 155 162 173 175 171 168 170 176 178 179 180 179 178 176 173 178 183 181 175 171 162 156 151 151 155 153 151 153 157 158 159 159 158 154 152 151
178 70 237 217 232 253 184 139 239 61 134 133 189 165 169 165 172 172 172 173 177 180 182 183 184 184 181 178 185 192 182 180 181 174 168 165 159 158 157 156 159 165 167 169 171 171 169 166 159
159 131 234 230 212 249 18 186 222 81 142 75 160 151 164 165 170 174 176 177 180 183 185 188 191 189 186 185 189 199 185 179 186 183 174 172 169 163 161 160 162 164 171 179 179 180 190 189 183
161 208 244 215 288 214 189 241 209 155 206 178 160 155 166 168 171 177 183 187 186 187 190 193 194 193 191 190 196 195 188 188 183 177 178 173 177 175 167 169 167 173 175 178 185 190 193 199 203
161 232 264 264 261 188 159 185 175 202 273 215 180 170 169 172 174 179 186 190 194 193 196 197 196 198 198 199 201 197 193 195 188 181 185 179 179 175 177 178 181 174 168 173 183 192 198 201 210
181 232 228 246 237 218 157 152 192 225 165 165 165 171 175 176 179 183 188 193 196 199 202 202 200 201 203 203 203 201 197 197 194 190 196 189 188 189 189 201 198 185 176 178 190 198 201 206 209
285 219 255 234 212 210 188 154 110 149 159 164 171 180 183 184 186 187 194 196 200 203 208 206 206 205 206 206 205 204 201 197 198 195 186 178 177 183 195 206 201 193 183 179 187 209 216 220 217
310 349 24 6 254 278 112 316 234 172 168 167 174 183 191 195 194 198 199 200 204 206 210 211 208 206 207 206 205 204 204 199 195 194 191 188 186 187 191 186 182 187 190 195 204 214 221 224 226
27 29 16 342 130 18 158 261 255 179 177 178 185 189 199 204 207 207 206 207 209 206 205 208 208 207 209 208 204 204 203 203 198 194 193 196 200 203 200 195 197 203 215 226 236 237 234 236 250
9 103 332 333 213 95 175 273 29 184 183 191 192 195 200 211 214 216 215 214 213 212 206 205 213 208 208 208 207 206 205 205 201 200 200 203 209 215 220 218 217 227 236 239 249 253 252 254 265
312 336 298 178 351 242 236 257 259 189 199 197 201 200 201 214 217 215 220 221 218 218 212 201 219 219 208 206 205 206 205 204 205 210 212 216 220 219 224 227 228 235 246 250 251 258 262 260 261
261 267 287 293 226 251 247 262 270 187 202 210 202 204 207 216 222 221 218 222 223 224 216 213 213 210 207 203 203 204 208 208 211 216 223 224 226 229 229 227 231 236 244 253 257 262 261 259 254
233 296 296 285 269 255 291 278 276 172 215 212 206 205 212 214 219 221 223 220 224 225 225 222 226 219 212 206 206 211 210 211 216 222 228 237 228 225 229 235 233 238 246 254 258 265 268 260 258
257 221 265 268 327 292 326 314 315 280 250 264 231 226 222 215 219 223 222 226 226 226 225 223 222 227 223 219 207 215 221 225 226 228 226 229 231 230 225 235 240 235 244 255 262 264 264 264 256
274 201 233 267 10 299 42 279 307 321 300 234 237 225 220 214 218 226 223 225 231 233 232 228 230 228 227 225 221 220 224 226 228 231 232 233 239 233 229 235 241 241 240 249 259 259 257 255 255
231 189 258 287 219 2 327 91 268 348 305 280 254 226 223 223 213 220 223 224 230 232 234 232 232 231 230 227 229 229 231 234 239 239 238 240 244 240 234 239 244 243 240 248 253 256 247 246 248
284 48 37 50 80 30 257 131 285 246 220 283 273 270 221 220 215 220 230 225 227 231 228 227 228 229 230 232 232 231 235 235 238 241 243 245 245 245 245 241 244 246 243 244 252 253 250 249 250
80 59 342 353 11 222 14 85 238 259 249 241 277 317 275 220 215 216 224 223 224 228 227 225 227 231 233 236 236 234 237 238 237 241 244 242 242 238 242 241 243 249 248 247 254 251 251 247 246
179 152 153 225 199 262 342 254 262 230 289 286 285 304 297 216 212 208 216 219 221 223 225 225 228 230 234 239 240 239 240 245 245 247 246 239 242 245 249 249 251 255 251 252 254 250 245 244 244
175 159 185 104 16 60 259 294 306 344 334 343 332 300 284 238 212 205 211 219 220 220 222 227 230 231 233 236 241 241 243 245 248 248 251 247 242 249 251 257 259 258 259 257 263 263 249 240 240
168 159 77 11 169 219 290 285 236 301 308 301 276 260 247 237 220 207 209 218 224 223 224 232 236 239 240 241 241 245 247 247 250 248 252 253 250 251 256 262 268 271 265 258 259 264 257 252 240
37 213 48 119 125 164 200 266 220 247 259 268 283 269 260 222 226 207 204 213 225 229 224 231 238 242 242 244 247 249 253 252 253 253 253 255 259 255 253 250 249 249 259 254 250 250 250 243 233
142 175 151 130 216 124 158 269 268 300 316 311 297 293 261 241 224 223 213 209 218 232 228 233 239 244 246 246 251 255 255 256 257 258 258 257 256 257 253 251 250 250 242 236 235 241 240 238 233